Location: Newark
(37.3186°N, 13.6631°E)
Time: 00:00:16
(UTC+00:00)

ISS - Pass Details

Date: 20 November 2019
Orbit: 411 x 421 km, 51.6° (Epoch: 11 December)

Event Time Altitude Azimuth Distance (km) Brightness Sun altitude
Rises 17:22:09 0° 214° (SW) 2,339 0.7 -17.8°
Reaches altitude 10° 17:24:17 10° 207° (SSW) 1,483 -0.5 -18.3°
Enters shadow 17:27:14 42° 148° (SSE) 607 -3.2 -18.8°
